Volver al catálogo

COSMOS 1823 DEB

ActivoLEO
NORAD 29360·DEBRIS·🇷🇺 Russia

Lanzado Feb 20, 1987 desde Plesetsk Cosmodrome

Loading…

Próximos Pases (próximas 24 horas)

TLE

ActualizadoSource: Space-Track

Época: Sep 13, 2026, 03:17 UTC

1 29360U 87020EB  26256.13696696  .00000312  00000-0  24550-2 0  9998
2 29360  73.7077 141.7778 0063762  84.9238  67.1872 12.39628687156146

Sigue COSMOS 1823 DEB en tiempo real con AllMySat

Download on the App Store